This demonstration page uses our WeatherBlox Daily Observations layout. Learn more.

Left ArrowRight Arrow

34.16533, -84.80231

Hourly Observations for April 29, 2022

Temp ( °F °C ) Dew Point ( °F °C ) Humidity (%) Winds ( mph kmh ) Pressure ( in mb ) Visibility ( mi km ) Precip ( " mm )
12:50 am 00:50 Clear 58 14.4 46 7.8 65 65 Calm 30.09 1019 10 16 0.00 0.00
1:50 am 01:50 Clear 57 13.9 47 8.3 69 69 Calm 30.08 1019 10 16 0.00 0.00
2:50 am 02:50 Clear 55 12.8 47 8.3 74 74 Calm 30.07 1018 10 16 0.00 0.00
3:50 am 03:50 Clear 62 16.7 44 6.7 52 52 SW 5 7 30.06 1018 10 16 0.00 0.00
4:50 am 04:50 Clear 60 15.6 44 6.7 56 56 SSW 5 7 30.07 1018 10 16 0.00 0.00
5:50 am 05:50 Clear 59 15 44 6.7 58 58 SSW 3 6 30.09 1019 10 16 0.00 0.00
6:50 am 06:50 Partly Cloudy 59 15 44 6.7 58 58 VRB 5 7 30.11 1020 10 16 0.00 0.00
7:50 am 07:50 Sunny 59 15 46 7.8 62 62 SSW 7 11 30.13 1020 10 16 0.00 0.00
8:50 am 08:50 Mostly Cloudy 61 16.1 49 9.4 65 65 VRB 3 6 30.14 1021 10 16 0.00 0.00
9:50 am 09:50 Mostly Cloudy 66 18.9 53 11.7 63 63 SSW 6 9 30.14 1021 10 16 0.00 0.00
10:50 am 10:50 Mostly Sunny 69 20.6 53 11.7 57 57 VRB 7 11 30.14 1021 10 16 0.00 0.00
11:50 am 11:50 Sunny 72 22.2 50 10 46 46 SSW 8 13 30.13 1020 10 16 0.00 0.00
12:50 pm 12:50 Sunny 74 23.3 47 8.3 38 38 S 9 15 30.11 1020 10 16 0.00 0.00
1:50 pm 13:50 Mostly Cloudy 77 25 48 8.9 36 36 ESE 12 19 30.09 1019 10 16 0.00 0.00
2:50 pm 14:50 Mostly Sunny 78 25.6 48 8.9 35 35 SSW 8 13 30.07 1018 10 16 0.00 0.00
3:50 pm 15:50 Mostly Cloudy 79 26.1 48 8.9 34 34 S 8 13 30.05 1018 10 16 0.00 0.00
4:50 pm 16:50 Cloudy 77 25 46 7.8 33 33 S 6 9 30.04 1017 10 16 0.00 0.00
5:50 pm 17:50 Cloudy 77 25 45 7.2 32 32 SE 7 11 30.03 1017 10 16 0.00 0.00
6:50 pm 18:50 Mostly Sunny 77 25 45 7.2 32 32 S 7 11 30.02 1017 10 16 0.00 0.00
7:50 pm 19:50 Mostly Sunny 75 23.9 45 7.2 34 34 S 5 7 30.03 1017 10 16 0.00 0.00
8:50 pm 20:50 Clear 72 22.2 45 7.2 38 38 SE 3 6 30.04 1017 10 16 0.00 0.00
9:50 pm 21:50 Clear 68 20 46 7.8 45 45 ESE 5 7 30.05 1018 10 16 0.00 0.00
10:50 pm 22:50 Clear 67 19.4 45 7.2 45 45 ESE 3 6 30.05 1018 10 16 0.00 0.00
11:50 pm 23:50 Clear 67 19.4 45 7.2 45 45 E 5 7 30.05 1018 10 16 0.00 0.00

Powered by AerisWeather